Location: Little Ridge
(33.0629°N, 96.4547°W)
Time: 12:13:38
(UTC+00:00)

Meteor 1-31 Rocket - Pass Details

Date: 08 December 2021
Orbit: 519 x 544 km, 97.7° (Epoch: 23 January)

Event Time Altitude Azimuth Distance (km) Brightness Sun altitude
Rises 12:19:12 0° 355° (N) 2,705 6.1 -11.9°
Reaches altitude 10° 12:21:39 10° 340° (NNW) 1,812 5.1 -11.4°
Maximum altitude 12:24:43 22° 289° (WNW) 1,202 3.9 -10.8°
Drops below altitude 10° 12:27:48 10° 237° (WSW) 1,807 5.1 -10.2°
Sets 12:30:14 0° 222° (SW) 2,695 6.1 -9.7°
